Weather History for Lee's Summit, MO

Change the Weather History Date:

Saturday, May 25, 2013

  Actual Average (KMKC) Record (KMKC)
Temperature  
Mean Temperature 71 °F -  
Max Temperature 82 °F 76 °F 89 °F (2006)
Min Temperature 61 °F 57 °F 48 °F (2001)
Cooling Degree Days 6    
Growing Degree Days 21 (Base 50)    
Moisture  
Dew Point 56 °F    
Average Humidity 62    
Maximum Humidity 75    
Minimum Humidity 52    
Precipitation  
Precipitation 0.00 in - - ()
Sea Level Pressure  
Sea Level Pressure 30.10 in    
Wind  
Wind Speed 9 mph (South)    
Max Wind Speed 16 mph    
Max Gust Speed 25 mph    
Visibility 10 miles    
Events      
Averages and records for this station are not official NWS values.
T = Trace of Precipitation, MM = Missing Value Source: NWS Daily Summary

Daily Weather History Graph

Daily Weather History Graph

Search for Another Location

Airport:

Trip Planner

Search our weather history database for the weather conditions in past years. The results will help you decide how hot, cold, wet, or windy it might be!

Date:

Astronomy

May. 25, 2013 Rise Set
Actual Time 5:57 AM CDT 8:32 PM CDT
Civil Twilight 5:26 AM CDT 9:03 PM CDT
Nautical Twilight 4:47 AM CDT 9:41 PM CDT
Astronomical Twilight 4:04 AM CDT 10:25 PM CDT
Moon 9:21 PM CDT (5/25) 6:24 AM CDT (5/25)
Length of Visible Light 15h 36m
Length of Day
14h 35m
Full, 100% of the Moon is Illuminated
May 25
Full
May 31
Last Quarter
Jun 8
New
Jun 16
First Quarter
Jun 23
Full

Hourly Weather History & Observations

Time (CDT) Temp. Heat Index Dew Point Humidity Pressure Visibility Wind Dir Wind Speed Gust Speed Precip Events Conditions
12:53 AM 63.0 °F - 45.0 °F 52% 30.17 in 10.0 mi SSE 5.8 mph - N/A   Partly Cloudy
1:53 AM 61.0 °F - 45.0 °F 56% 30.15 in 10.0 mi SSE 6.9 mph - N/A   Clear
2:53 AM 61.0 °F - 45.0 °F 56% 30.15 in 10.0 mi SSE 9.2 mph - N/A   Clear
3:53 AM 61.0 °F - 46.0 °F 58% 30.15 in 10.0 mi SSE 9.2 mph 17.3 mph N/A   Overcast
4:53 AM 61.0 °F - 46.9 °F 60% 30.16 in 10.0 mi South 11.5 mph 17.3 mph N/A   Mostly Cloudy
5:53 AM 61.0 °F - 46.9 °F 60% 30.14 in 10.0 mi South 13.8 mph 20.7 mph N/A   Mostly Cloudy
6:53 AM 61.0 °F - 48.0 °F 62% 30.15 in 10.0 mi South 12.7 mph 18.4 mph N/A   Clear
7:53 AM 61.0 °F - 50.0 °F 67% 30.14 in 10.0 mi South 11.5 mph 21.9 mph N/A   Clear
8:53 AM 63.0 °F - 52.0 °F 67% 30.13 in 10.0 mi SSW 12.7 mph 21.9 mph N/A   Clear
9:53 AM 66.0 °F - 55.0 °F 68% 30.14 in 10.0 mi SSW 12.7 mph 19.6 mph N/A   Clear
10:53 AM 69.1 °F - 57.0 °F 65% 30.16 in 10.0 mi SSW 8.1 mph - N/A   Clear
11:53 AM 72.0 °F - 60.1 °F 66% 30.15 in 10.0 mi SW 8.1 mph - N/A   Clear
12:53 PM 73.9 °F - 60.1 °F 62% 30.13 in 10.0 mi SSW 6.9 mph - N/A   Clear
1:53 PM 77.0 °F - 62.1 °F 60% 30.11 in 10.0 mi South 8.1 mph - N/A   Clear
2:53 PM 78.1 °F - 63.0 °F 60% 30.09 in 10.0 mi SSW 10.4 mph - N/A   Clear
3:53 PM 81.0 °F 82.5 °F 64.0 °F 56% 30.06 in 10.0 mi South 11.5 mph 23.0 mph N/A   Partly Cloudy
4:53 PM 81.0 °F 82.5 °F 64.0 °F 56% 30.03 in 10.0 mi SSW 16.1 mph 24.2 mph N/A   Clear
5:53 PM 80.1 °F 81.2 °F 62.1 °F 54% 30.01 in 10.0 mi SSW 13.8 mph 23.0 mph N/A   Clear
6:53 PM 80.1 °F 81.2 °F 62.1 °F 54% 30.01 in 10.0 mi SSW 11.5 mph 25.3 mph N/A   Clear
7:53 PM 78.1 °F - 63.0 °F 60% 30.02 in 10.0 mi South 6.9 mph - N/A   Clear
8:53 PM 75.0 °F - 63.0 °F 66% 30.02 in 10.0 mi South 5.8 mph - N/A   Clear
9:53 PM 73.9 °F - 63.0 °F 68% 30.05 in 10.0 mi SSE 4.6 mph - N/A   Clear
10:53 PM 72.0 °F - 63.0 °F 73% 30.07 in 10.0 mi SE 4.6 mph - N/A   Mostly Cloudy
11:53 PM 71.1 °F - 63.0 °F 75% 30.06 in 10.0 mi SE 5.8 mph - N/A   Scattered Clouds